Theta_e
288 287 287 287 287 287 287 287 286 286 286 286 286 286 286 285 286 285 285 285 286 285 284 283 283 283 283 282 282 282 281 280 280 280 280 280 280 280 279 279 279 279 278 279 279 279 279 278 278 277 277 277 277 277 277 276 275 276 275 276 276 277
288 287 287 286 286 286 286 286 286 285 285 285 285 284 284 284 284 284 284 283 284 283 282 282 283 283 282 282 282 281 281 280 280 280 280 280 280 279 279 279 278 278 278 278 278 278 277 277 276 277 277 276 276 276 276 275 275 274 274 275 275 277
288 287 287 286 285 286 286 286 286 285 285 284 284 284 283 283 283 283 283 283 282 282 282 282 282 281 281 281 281 280 280 280 280 280 280 279 279 279 278 279 279 278 278 278 278 277 277 276 276 276 276 276 275 276 275 274 274 273 273 274 274 274
287 286 285 285 284 284 285 285 285 284 284 284 284 283 283 283 283 283 283 282 282 282 281 281 281 281 281 280 280 280 279 279 279 279 279 279 279 279 279 278 278 278 277 277 277 277 276 276 276 275 275 275 275 275 277 274 273 272 273 273 273 273
287 286 285 284 284 284 284 284 285 284 283 283 283 283 283 283 283 283 282 282 281 281 281 281 281 281 280 280 279 279 279 279 279 279 279 279 279 278 278 278 278 278 278 277 277 277 276 275 275 275 274 274 274 274 273 274 272 272 272 273 273 273
286 284 284 284 284 283 284 284 284 284 283 283 283 283 282 282 282 282 282 281 281 280 280 280 280 280 280 279 279 279 279 279 279 279 279 279 278 278 278 278 278 278 278 277 276 275 275 275 274 274 274 274 273 273 273 272 272 272 272 272 272 272
285 285 285 284 284 284 284 284 284 284 283 283 283 282 282 282 282 282 281 281 280 280 280 280 280 280 279 279 279 279 279 279 279 278 278 278 278 278 278 278 278 277 277 277 275 275 274 274 274 274 274 274 273 273 273 272 272 272 272 272 272 276
286 285 284 284 284 284 284 284 284 283 283 282 283 282 281 281 281 281 281 280 280 280 279 280 279 279 279 279 279 279 279 279 278 278 278 278 278 278 279 278 277 277 277 276 275 274 274 274 274 274 273 273 273 272 272 272 272 272 272 272 273 273
285 285 284 284 284 284 284 284 283 283 283 282 282 283 282 282 281 281 281 280 280 279 279 279 279 279 279 279 279 279 278 278 278 278 278 278 278 278 278 277 277 277 276 276 275 274 274 274 274 273 273 273 273 272 272 271 271 272 272 273 273 273
285 285 284 284 284 284 283 283 284 284 284 283 283 283 283 282 282 281 280 280 279 279 279 279 279 279 279 278 278 278 278 278 278 278 278 278 278 278 277 277 277 276 276 275 275 275 275 274 273 273 273 273 272 272 271 271 271 272 273 273 273 273
286 285 285 284 284 284 284 284 284 284 284 284 283 283 283 282 281 281 280 279 279 279 279 279 278 278 278 278 278 278 278 278 278 278 279 279 278 278 277 277 276 276 276 275 275 275 275 274 274 274 273 272 272 272 272 272 272 272 272 273 272 273
287 287 286 285 284 284 284 284 284 284 284 283 283 282 282 282 281 280 279 279 279 279 278 278 278 278 278 278 278 278 278 278 278 278 278 278 278 277 277 276 276 276 276 275 275 275 274 273 273 276 279 278 273 273 273 273 272 271 272 272 271 271
288 287 286 285 285 284 284 284 284 284 284 283 283 283 282 281 280 280 279 279 279 278 278 278 278 277 278 278 278 278 278 278 278 278 278 277 277 277 276 276 276 276 276 275 275 273 273 272 273 278 281 280 279 273 272 272 271 271 271 271 271 270
288 287 286 286 286 285 285 284 284 284 283 283 283 282 281 281 280 280 280 279 279 278 278 278 277 277 278 278 278 278 278 278 278 278 278 277 277 276 276 275 275 275 275 274 273 272 272 272 277 280 281 282 281 279 273 271 270 270 271 271 271 271
289 288 287 287 286 286 285 285 284 283 284 283 283 282 280 281 280 280 280 279 278 278 278 278 278 277 278 278 278 278 278 278 278 277 277 276 276 276 275 275 275 274 273 272 271 271 271 271 278 280 282 282 282 282 277 271 272 271 270 271 271 271
289 289 288 288 287 287 286 285 284 284 284 283 283 282 281 281 280 280 279 278 278 278 278 278 278 278 278 278 278 278 278 277 278 278 277 277 276 276 275 275 274 273 271 271 271 271 270 270 277 281 282 282 282 281 280 271 272 271 272 273 272 271
289 289 288 288 287 286 285 284 284 284 283 283 282 282 281 281 280 279 279 278 278 278 278 278 278 278 278 278 278 277 277 277 277 277 277 276 276 275 274 273 272 271 270 270 269 269 270 270 277 281 281 282 282 281 280 272 273 273 273 274 273 272
289 289 289 288 287 286 285 285 284 284 283 283 282 281 281 281 280 279 279 279 278 278 278 278 278 278 278 278 277 277 277 277 277 276 276 275 275 274 272 269 268 270 269 269 268 268 269 269 278 280 281 281 281 281 274 272 272 272 272 272 272 272
289 288 288 287 287 286 285 285 284 283 282 281 282 281 281 280 280 279 279 279 279 278 279 279 278 278 277 277 277 276 277 277 275 276 275 274 274 272 271 271 270 270 270 269 268 268 269 267 275 279 280 281 281 280 271 271 271 271 271 270 270 270
287 287 288 287 286 286 285 284 284 283 282 281 281 281 280 280 280 280 279 279 279 279 279 279 279 278 278 277 277 277 277 277 276 275 273 273 272 272 271 270 269 268 269 268 268 269 268 267 272 279 280 280 281 278 271 271 271 270 270 269 269 269
286 286 286 286 285 285 284 284 283 283 282 282 281 280 280 280 280 280 279 279 279 279 279 279 278 278 278 277 278 277 277 276 275 274 272 273 273 272 271 269 269 267 266 267 268 271 269 267 270 277 279 280 280 278 270 270 269 269 268 267 267 269
285 285 285 285 285 284 284 284 284 283 282 281 280 280 280 280 280 280 280 280 279 279 278 279 279 278 278 278 278 277 277 276 274 273 273 272 272 271 269 269 269 268 267 266 266 267 269 266 265 270 278 279 280 280 272 270 269 268 268 267 267 266
286 286 285 285 284 284 284 284 284 283 282 281 280 280 281 281 281 280 279 278 278 278 278 278 278 278 278 278 278 277 275 275 275 273 272 271 270 268 267 267 267 267 267 265 266 265 266 266 265 267 276 278 279 280 277 270 270 269 268 266 266 266
283 283 282 282 283 284 284 284 284 283 281 280 281 282 282 280 279 278 277 277 278 277 277 277 278 278 278 277 276 275 275 274 274 273 272 270 269 269 269 267 266 266 266 265 265 265 265 266 269 265 272 277 278 279 280 273 271 270 267 266 266 267
282 282 282 281 281 283 283 284 283 281 281 281 282 281 278 278 278 277 277 277 277 276 277 277 276 277 277 276 276 276 275 272 272 270 270 269 268 269 268 267 266 266 266 264 264 264 264 264 265 272 268 273 277 279 280 280 275 276 271 267 267 267
282 281 280 280 280 281 283 283 282 280 280 282 280 277 275 276 276 276 276 276 276 275 275 275 276 276 276 276 275 275 274 271 271 270 269 269 269 269 268 267 266 265 266 266 266 264 264 263 263 268 272 270 275 278 279 280 280 278 273 271 269 269
281 280 279 278 279 279 280 281 281 279 280 279 277 276 276 275 274 276 275 275 275 275 275 273 274 274 274 274 275 274 274 271 269 270 267 268 268 268 269 268 266 266 266 266 266 266 265 263 263 263 267 273 274 276 278 279 280 280 279 274 272 272
280 279 278 277 276 278 278 278 279 279 278 274 276 272 274 273 274 274 276 274 274 274 272 272 270 270 271 272 273 275 274 273 270 271 268 267 268 268 268 268 266 266 266 266 266 266 266 264 263 263 263 268 272 274 276 278 279 279 279 278 275 276
279 278 278 277 275 276 276 275 276 276 273 273 274 273 272 272 273 273 270 270 270 268 268 272 272 269 266 266 267 269 271 271 270 270 268 268 268 268 267 268 267 266 265 265 266 266 265 263 263 263 263 264 265 268 271 273 275 277 278 276 276 277
279 278 276 278 276 275 274 274 273 271 268 269 271 271 271 272 272 272 269 267 266 266 265 267 269 267 265 265 265 268 267 267 268 269 270 268 268 268 268 268 267 267 267 266 266 263 262 263 262 263 263 264 264 266 267 268 269 270 272 274 274 274
277 277 277 275 273 271 270 270 270 269 270 267 266 269 271 270 268 266 265 264 265 265 264 264 263 264 263 262 261 261 262 265 265 267 266 265 263 264 265 265 266 266 263 263 264 264 264 263 264 264 268 267 269 266 265 265 267 268 269 272 274 272
275 274 273 272 270 271 270 268 268 268 268 264 264 267 269 268 267 265 265 265 265 263 264 263 263 262 263 263 263 263 262 266 271 268 265 264 270 273 274 273 267 264 263 265 266 267 267 267 267 271 272 273 273 274 273 272 271 272 270 271 274 274
272 272 272 271 270 270 269 267 265 265 265 266 266 266 267 267 268 266 265 264 265 266 265 263 263 263 263 263 262 261 262 262 264 272 274 273 272 273 274 275 276 276 275 269 266 269 274 274 274 274 274 275 275 275 275 276 276 275 275 275 272 271
272 272 273 270 269 268 267 266 263 263 262 262 263 264 264 265 269 268 267 266 263 266 264 262 263 262 262 260 260 262 260 260 261 263 270 273 274 275 275 275 275 276 276 276 274 269 265 272 275 275 275 275 275 276 276 277 277 277 277 277 277 271
273 272 271 270 269 267 265 263 261 260 261 260 261 262 263 263 265 266 263 263 264 264 265 263 263 262 263 261 261 259 260 261 261 262 261 264 272 274 275 275 276 276 276 276 276 277 273 271 273 274 275 275 275 276 276 277 278 278 278 278 275 272
270 270 269 268 267 265 262 260 258 258 258 258 258 260 261 261 262 262 261 261 261 263 262 262 261 262 261 261 261 261 260 260 260 260 260 259 258 264 270 274 275 275 275 276 276 276 276 276 276 275 275 275 276 276 277 277 276 278 279 277 273 272
267 266 266 266 264 262 259 257 256 256 257 258 258 260 260 260 261 260 262 262 261 260 260 261 261 261 260 260 260 260 259 260 259 259 259 258 259 259 260 260 264 269 272 272 273 274 275 275 276 276 276 277 277 277 277 277 274 273 273 274 273 271
264 263 263 262 261 259 257 256 257 257 256 256 256 259 259 260 261 260 260 260 259 260 260 259 259 259 260 258 258 257 258 258 259 259 257 258 258 257 257 256 258 260 266 269 269 270 271 272 273 274 274 275 275 276 276 272 271 270 270 269 270 269
Wind_Speed
13 12 11 10 9 9 9 8 8 8 7 8 9 10 10 10 8 7 7 8 8 8 9 10 8 7 7 7 8 8 9 9 8 8 7 7 6 7 7 7 6 6 6 6 6 5 5 4 4 4 5 5 6 4 5 4 4 5 4 2 2 1
13 12 12 12 12 11 10 10 8 9 8 9 8 7 7 8 8 8 9 7 7 7 6 6 6 7 8 9 10 9 9 8 9 8 8 8 6 6 7 7 7 7 7 6 6 5 4 4 4 4 6 6 6 5 6 4 4 4 4 2 1 1
11 10 9 9 7 7 8 9 9 8 7 8 9 11 10 9 8 8 8 7 7 9 9 9 8 8 7 8 7 9 8 7 7 7 7 7 7 7 8 7 7 7 7 7 6 5 5 4 5 4 5 6 5 5 4 4 4 4 3 2 1 1
9 7 7 7 9 9 11 9 9 9 9 9 9 9 9 10 9 9 8 7 8 9 9 8 7 8 8 8 8 8 8 8 8 8 7 8 7 7 8 8 6 6 6 6 6 6 5 4 5 5 5 6 5 4 3 5 4 4 2 3 1 0
10 10 11 12 12 11 11 10 10 10 10 10 9 11 10 9 9 8 8 8 9 9 8 8 8 8 9 10 8 9 9 8 8 7 9 8 7 5 6 7 7 7 7 6 6 6 5 5 5 5 6 5 5 5 4 4 4 3 3 2 1 1
9 10 11 12 12 12 13 11 10 10 10 10 10 12 11 10 9 9 9 8 8 8 8 8 8 9 9 10 9 10 8 9 8 7 8 7 7 8 5 6 7 7 7 7 6 5 5 5 5 5 5 6 5 5 4 4 3 2 2 2 2 1
13 14 13 13 12 11 11 12 12 11 11 10 11 10 10 9 8 10 9 9 10 9 9 9 9 10 10 10 9 10 9 9 9 7 8 8 7 6 7 6 6 7 7 8 7 7 6 6 6 6 5 4 4 5 4 3 3 3 2 2 2 3
13 12 12 11 12 13 13 12 11 11 10 11 10 11 10 10 8 9 10 9 11 10 10 10 10 11 11 10 10 11 10 9 9 8 7 7 8 7 7 8 7 7 8 7 7 6 6 5 5 6 6 5 4 4 3 3 3 3 2 2 2 2
17 16 14 12 11 11 12 12 12 11 11 11 10 10 11 10 10 10 11 10 11 10 11 11 11 10 10 10 10 9 9 9 9 9 9 8 8 9 9 7 8 7 7 7 7 7 7 6 5 5 5 5 4 4 4 3 3 3 2 2 3 2
11 12 13 12 12 11 10 10 11 13 13 14 11 11 11 10 11 11 11 11 11 11 12 11 10 9 9 9 9 9 9 9 8 8 7 8 9 9 9 10 9 8 6 7 7 6 6 6 5 5 5 5 5 4 4 4 3 3 2 1 1 1
14 14 14 14 12 13 13 12 11 10 9 9 11 11 12 11 12 12 12 11 12 12 11 9 8 7 8 9 9 9 9 9 8 8 8 8 8 7 8 8 8 9 8 6 6 7 6 6 6 6 6 6 5 5 5 4 3 3 2 1 1 1
16 16 14 13 16 15 14 13 13 13 13 12 12 12 11 11 12 13 12 12 12 10 10 10 8 9 9 9 10 10 9 9 9 9 9 9 8 8 7 7 7 8 9 9 7 6 6 6 5 6 10 8 6 5 5 4 3 2 2 2 2 2
12 12 14 15 16 17 16 14 13 11 11 11 12 12 12 11 12 12 12 13 11 10 10 10 10 9 11 10 9 8 9 10 8 8 8 8 8 9 8 8 9 8 8 9 9 8 6 6 5 11 12 12 12 6 5 5 3 3 2 3 3 3
13 14 17 17 16 16 14 13 12 12 14 12 12 11 10 11 12 12 12 11 10 10 11 10 10 10 10 9 9 9 9 8 9 9 8 8 8 8 7 8 9 8 8 7 7 7 7 6 8 13 12 12 12 9 6 4 4 3 3 3 3 3
18 19 18 15 15 15 15 13 12 14 13 13 11 9 11 12 11 11 11 10 10 10 10 10 11 11 10 9 9 9 9 10 9 9 9 10 8 7 8 10 9 8 7 7 8 7 6 6 11 13 13 13 12 12 9 5 5 5 4 3 3 3
12 12 14 14 13 11 9 11 13 10 9 10 10 12 12 12 11 11 11 9 10 10 10 11 10 10 10 9 9 9 10 10 11 10 8 7 7 9 8 7 8 7 8 8 8 7 6 6 10 14 14 13 12 12 9 5 6 4 4 4 4 4
11 10 10 11 12 11 11 10 10 10 10 11 13 12 12 12 12 11 11 11 10 10 10 11 10 11 10 10 9 10 10 11 9 9 9 9 10 11 11 10 9 8 7 7 6 6 7 6 11 13 13 13 13 12 8 5 4 4 4 6 5 5
15 15 14 9 11 11 12 12 11 12 12 11 12 11 12 12 12 12 11 11 11 12 12 12 11 10 9 10 9 10 11 10 11 11 9 8 7 5 4 4 5 7 8 7 6 6 7 6 13 14 13 13 13 13 5 5 5 5 4 5 5 4
9 9 9 10 11 11 12 10 11 11 10 11 10 11 11 11 12 13 12 12 12 12 12 12 12 11 10 9 10 11 11 11 10 9 7 8 8 8 8 9 9 8 8 8 7 8 7 5 10 14 14 14 14 9 5 5 5 5 5 6 5 5
8 9 11 10 9 9 8 9 11 11 11 11 10 11 11 11 13 12 11 12 12 12 11 11 11 11 10 10 13 13 11 10 8 9 8 11 10 10 11 8 8 7 7 8 9 9 9 7 9 14 14 15 15 10 7 6 6 5 5 5 5 5
9 8 8 9 8 6 8 10 11 11 11 10 10 11 11 13 12 10 12 13 11 10 10 10 10 11 11 12 12 12 12 11 11 9 8 9 8 9 7 7 7 7 6 7 8 8 9 7 9 14 15 15 15 10 6 7 6 6 7 6 6 5
10 8 8 8 8 7 9 10 10 10 10 9 9 10 12 13 12 12 11 9 8 9 8 9 10 11 12 13 11 10 10 7 6 8 9 8 7 7 7 7 7 8 8 7 7 8 8 8 7 9 16 16 16 16 8 7 7 9 8 7 6 6
8 9 8 6 8 8 9 9 9 9 8 9 9 11 13 11 8 8 7 7 7 7 9 8 10 12 11 11 11 9 7 7 9 8 8 9 7 6 6 7 7 7 7 6 7 7 7 8 9 9 16 17 17 18 15 8 9 8 7 6 7 6
7 7 6 5 8 8 8 9 9 7 7 7 9 12 9 5 6 6 6 7 8 8 8 9 8 9 10 7 7 8 9 7 7 8 9 7 7 9 9 7 7 7 7 6 6 7 8 7 11 8 14 18 19 18 20 10 10 10 7 7 7 7
7 7 7 6 6 6 7 8 8 7 6 8 12 6 4 5 5 6 7 6 7 7 9 8 9 9 7 8 9 9 9 7 7 7 7 8 8 9 9 8 7 7 8 7 7 7 8 7 8 14 11 16 19 20 19 20 12 16 9 9 9 9
6 7 5 5 5 5 6 9 8 7 7 12 3 4 4 5 5 6 6 7 7 7 7 8 8 8 7 9 9 9 9 8 8 8 8 8 9 9 9 8 7 7 8 10 10 8 8 7 7 11 16 13 19 19 20 20 21 18 11 9 8 7
9 7 6 4 5 4 5 6 10 7 9 4 4 5 6 5 5 6 6 7 7 8 7 6 7 8 7 7 9 9 8 7 7 8 6 7 8 8 9 9 8 9 10 9 10 10 8 8 8 7 12 18 17 19 20 20 20 21 20 12 9 8
7 8 8 4 4 4 4 4 8 11 6 3 5 4 5 6 6 6 7 6 6 7 5 7 6 6 6 7 8 9 9 10 9 9 7 7 8 8 9 9 8 9 9 10 10 10 9 6 7 8 8 10 13 14 18 19 19 20 22 20 11 14
8 7 7 7 4 5 4 5 4 2 2 4 5 6 6 6 6 5 4 5 2 1 3 5 6 5 4 5 5 6 7 7 8 8 8 8 9 9 9 9 9 9 9 10 12 10 5 5 6 7 6 7 7 7 7 9 12 18 18 13 11 12
8 7 6 7 7 5 5 4 3 2 3 3 5 6 6 6 6 7 5 5 4 4 3 3 3 4 3 1 1 5 4 4 6 8 10 11 11 11 11 10 10 11 11 10 7 3 3 6 5 7 8 7 7 7 8 7 5 6 6 8 7 7
7 7 7 3 2 3 3 2 1 2 2 3 4 5 6 6 5 5 5 5 5 5 4 5 4 4 4 3 1 1 1 5 4 5 3 1 1 4 6 6 7 6 3 4 6 6 6 6 8 8 6 9 11 10 7 7 8 7 7 10 11 5
4 4 4 3 3 5 4 3 3 1 2 3 4 4 5 5 5 5 5 5 4 4 5 4 5 4 6 6 6 6 5 5 8 7 6 6 4 7 10 8 7 5 5 6 6 6 9 9 6 6 13 16 16 17 16 13 12 12 9 10 16 11
4 5 5 4 4 5 5 4 2 2 2 0 1 3 4 4 5 3 4 4 4 5 6 4 5 5 4 5 4 4 4 4 5 6 8 9 8 10 10 12 13 13 12 9 6 7 13 14 11 9 11 14 16 17 17 17 17 17 16 16 10 10
5 5 5 4 5 6 5 5 4 4 4 3 1 1 3 4 5 5 6 5 5 5 4 4 5 4 5 3 3 5 4 3 4 6 6 7 9 10 12 12 12 12 11 12 10 6 4 9 12 12 11 12 14 15 16 17 19 19 19 19 19 11
5 5 5 5 6 6 5 6 3 4 5 5 3 1 3 3 4 4 4 4 5 4 5 5 5 4 5 4 4 3 3 5 6 5 5 5 6 10 12 12 12 12 13 13 14 13 8 8 10 12 12 12 13 15 16 18 20 20 21 21 14 11
5 4 5 5 6 7 6 5 3 4 5 4 3 1 3 3 3 3 3 3 3 4 3 4 4 5 4 3 4 5 5 4 5 5 3 2 4 4 4 5 8 10 11 12 12 12 13 14 13 14 15 15 15 16 17 17 14 20 22 19 12 10
6 5 4 6 6 6 6 4 3 3 4 4 1 3 4 4 4 4 5 5 4 3 3 3 3 4 3 4 4 4 3 4 3 3 3 3 2 2 2 2 4 6 9 5 5 8 10 10 11 12 12 14 16 17 18 17 12 11 10 10 9 7
7 5 4 5 6 6 6 3 4 5 3 3 2 4 4 4 4 4 3 3 4 4 4 3 3 3 5 4 4 3 4 3 3 3 1 1 0 1 0 2 3 3 6 10 10 11 11 11 12 12 13 14 16 16 15 10 8 7 7 7 8 8
Wind_Direction
189 188 187 183 180 177 174 166 163 161 161 162 160 160 159 153 151 147 147 150 153 159 160 158 154 153 149 144 141 141 142 143 145 142 138 127 129 130 133 134 133 131 126 122 118 113 117 125 145 143 135 132 124 119 113 98 93 98 102 131 122 178
188 185 180 178 176 173 172 168 163 164 161 156 153 143 142 142 147 150 153 155 150 148 143 146 149 152 151 151 148 148 148 148 144 141 138 144 138 143 144 142 143 140 132 127 124 129 143 150 153 137 126 122 127 130 120 123 105 98 106 87 65 130
182 178 176 171 164 165 165 168 168 161 154 157 158 154 154 153 155 152 156 152 151 150 154 154 153 154 148 143 145 140 144 144 142 144 142 135 150 153 152 151 149 144 140 139 142 149 158 153 139 130 123 122 125 126 126 120 109 107 113 115 47 61
173 165 160 157 159 167 169 168 160 162 164 162 156 151 159 157 160 160 156 155 154 157 155 156 153 150 147 145 145 144 147 148 149 147 146 153 162 160 156 153 149 144 143 143 149 154 156 149 133 130 127 127 131 131 124 114 112 114 123 123 131 8
172 172 171 171 173 171 168 167 169 166 162 160 164 160 166 162 158 155 155 156 158 159 155 154 155 153 153 150 151 151 151 151 150 155 155 159 161 163 157 154 149 147 143 143 149 151 152 145 135 135 129 134 132 128 116 124 129 141 144 141 187 193
163 164 174 175 175 175 176 171 165 163 164 165 161 166 161 159 159 156 154 154 156 154 153 159 157 155 157 156 157 155 155 153 156 159 157 160 158 156 157 148 147 144 145 145 151 157 151 144 144 140 137 140 133 128 133 137 140 152 164 172 196 201
176 184 181 180 180 175 170 172 171 167 168 165 165 164 161 156 157 156 157 157 155 159 160 163 164 163 164 160 159 158 156 158 157 161 161 157 158 159 151 148 143 145 149 156 162 158 157 159 151 141 141 136 135 136 143 154 155 166 177 192 199 209
181 181 184 183 184 178 174 173 170 169 166 169 164 159 160 161 156 158 155 161 162 165 169 169 169 172 168 163 162 162 162 161 161 161 165 162 159 159 159 152 154 158 161 164 164 159 159 161 153 149 146 143 136 140 147 162 174 185 182 194 212 210
189 188 183 184 182 180 177 173 171 170 167 165 167 163 160 160 160 161 163 168 169 169 174 175 178 173 169 168 165 161 162 165 166 165 167 169 162 161 159 159 157 162 165 169 162 162 161 158 157 152 151 148 149 153 160 171 176 186 192 208 213 222
184 183 184 180 184 179 176 177 176 174 172 170 167 164 162 164 164 166 170 170 174 178 179 181 177 173 171 165 163 166 167 166 167 170 167 163 167 167 167 166 167 166 167 171 165 164 159 159 161 161 155 156 157 156 169 174 178 192 208 211 216 206
188 186 185 186 177 181 179 176 175 172 172 168 169 168 173 165 165 170 173 176 180 183 178 174 175 172 165 165 165 167 171 170 169 168 169 173 170 171 170 166 161 162 168 170 169 166 166 168 175 172 169 162 167 168 173 163 158 161 182 221 253 261
189 188 182 181 186 184 181 179 179 179 175 175 173 172 170 163 173 173 177 182 185 178 175 174 172 173 168 169 174 175 171 170 170 170 172 176 173 169 168 166 170 174 174 169 171 173 171 181 181 181 177 170 164 161 154 145 149 159 183 206 237 269
187 181 182 189 189 190 186 184 177 171 173 176 176 176 173 170 174 180 180 185 182 175 171 172 178 172 178 179 174 172 171 174 172 173 173 171 172 173 171 173 178 184 181 176 172 175 182 183 186 186 185 185 180 163 163 163 173 175 189 205 213 233
185 184 190 192 193 189 185 177 173 174 184 178 178 175 165 175 179 182 185 184 175 173 174 178 175 178 183 177 179 175 175 171 173 175 174 173 175 178 172 181 188 183 183 180 179 181 185 188 189 189 190 189 190 173 166 164 172 183 200 207 220 225
190 192 192 190 190 190 189 173 166 184 181 176 174 152 169 181 182 183 184 181 175 176 177 177 179 184 185 186 178 175 173 175 177 177 176 184 181 168 181 189 182 191 185 182 181 188 191 189 194 193 195 196 197 193 166 176 169 182 200 212 217 223
191 192 191 189 188 184 168 173 180 175 162 158 156 169 177 179 183 183 185 179 179 177 180 182 184 188 190 182 179 176 179 179 186 183 180 173 172 183 187 185 189 188 191 190 190 190 191 192 201 196 196 198 200 203 186 161 173 176 191 217 222 224
183 177 176 183 178 167 158 168 169 159 163 168 173 178 175 182 181 185 185 183 181 178 184 187 189 191 187 184 181 179 183 187 181 178 183 181 185 186 189 187 189 197 194 195 189 187 196 204 203 200 200 200 203 206 193 158 164 177 205 226 226 225
181 182 181 159 153 162 168 173 164 165 176 169 172 173 178 178 183 189 185 186 184 188 190 188 190 190 187 183 179 182 188 187 185 185 184 184 189 194 177 199 195 193 195 194 187 186 206 213 205 205 204 204 205 207 177 166 173 186 204 216 220 220
160 157 147 154 158 161 176 167 164 165 158 167 175 173 177 180 190 193 190 189 190 193 191 188 188 189 184 181 181 189 191 186 191 193 172 180 189 186 194 198 196 196 192 191 192 193 207 208 210 205 206 206 206 202 164 176 173 191 211 225 218 222
149 150 148 150 161 165 155 153 159 156 162 170 170 173 181 187 199 193 187 194 195 193 189 189 186 185 183 182 191 193 195 194 193 189 179 185 186 196 203 195 196 200 196 193 198 197 197 205 213 208 206 207 210 195 175 180 186 203 219 227 224 216
139 128 123 134 151 155 147 150 152 156 168 170 172 176 184 198 199 187 193 200 195 190 188 186 185 186 185 190 196 193 193 194 194 185 177 196 194 204 187 187 196 203 206 207 203 197 198 201 211 212 210 210 212 200 168 181 187 204 223 222 227 222
105 109 128 153 158 145 149 151 155 163 165 171 168 181 198 202 195 197 199 193 185 186 184 185 186 189 188 196 198 195 199 185 167 177 188 198 195 194 186 192 199 202 211 202 199 207 202 197 210 216 214 213 212 206 174 181 182 212 218 213 215 219
121 139 150 145 145 150 150 147 151 164 168 164 173 199 206 201 193 190 190 179 179 184 187 187 188 191 199 197 195 190 184 180 188 180 185 194 189 183 191 197 205 208 215 202 210 206 214 202 202 215 214 215 214 212 198 187 204 210 208 207 214 217
100 104 110 133 143 147 147 148 154 160 153 166 193 211 203 177 178 170 167 177 185 187 187 190 197 196 195 188 171 177 194 195 183 186 187 181 182 194 205 203 204 208 218 214 213 215 218 212 206 204 220 219 220 218 214 199 208 201 193 208 218 219
129 136 136 134 134 136 148 143 147 149 160 179 212 194 151 163 152 162 171 178 184 189 192 194 191 193 185 186 186 184 194 181 181 184 176 180 188 199 208 208 204 207 221 226 227 225 221 214 220 213 215 226 224 223 221 218 209 209 201 202 218 216
119 117 115 126 132 136 142 148 145 156 167 210 161 126 140 141 159 155 170 185 191 190 195 195 196 194 188 187 183 188 186 183 187 183 186 186 188 198 210 215 202 209 221 224 232 226 222 216 211 224 220 223 229 228 225 225 222 213 205 205 222 218
135 126 121 126 135 137 142 145 152 155 194 207 131 161 155 156 152 166 179 191 192 195 198 188 192 193 193 188 178 184 190 187 174 186 198 183 198 201 210 216 196 210 220 225 232 231 221 213 211 219 229 228 228 230 229 228 227 226 221 218 218 216
120 129 135 134 141 142 146 147 148 170 206 149 157 148 148 147 157 176 196 194 195 199 179 184 198 195 192 185 190 194 191 184 185 194 187 188 204 206 211 216 203 217 222 229 236 236 225 205 205 219 223 233 235 235 234 233 232 232 231 230 225 220
131 136 144 158 181 166 170 170 179 135 130 154 153 149 146 154 164 177 175 190 188 156 175 194 194 196 193 192 195 197 189 183 186 189 189 195 201 207 212 216 210 216 220 229 234 235 224 214 215 218 218 223 230 237 238 236 237 235 236 238 240 241
147 154 156 170 183 178 180 179 163 137 90 118 137 139 138 149 167 171 176 165 153 156 157 183 162 168 189 219 212 207 206 201 189 195 201 197 203 200 214 212 215 218 219 231 250 257 235 235 227 223 214 217 216 224 222 226 235 234 231 233 232 231
152 167 169 143 127 137 125 121 127 161 140 125 129 131 131 147 155 151 156 157 144 163 159 161 155 162 169 185 231 297 216 196 214 228 265 333 153 209 222 218 241 241 235 230 234 220 248 242 235 233 203 214 214 213 208 213 218 219 228 232 232 234
136 133 107 85 120 131 142 153 181 200 160 142 139 133 135 149 149 153 174 166 166 167 161 172 175 170 173 177 192 214 257 228 198 198 202 246 250 224 225 213 222 210 201 225 230 196 223 242 240 218 218 222 222 224 221 220 221 222 223 229 233 230
108 112 101 112 111 112 109 89 50 47 31 50 138 140 148 146 155 172 177 165 185 181 180 174 179 186 179 183 179 192 210 263 302 262 236 226 224 235 245 245 245 236 217 200 228 227 232 243 248 240 228 226 227 227 231 233 233 233 231 227 223 234
123 130 143 138 116 108 96 78 41 25 7 12 18 107 137 163 164 190 198 189 184 174 173 175 173 166 168 177 166 175 184 210 248 288 285 258 245 244 241 242 246 249 253 247 236 207 242 255 251 248 242 236 233 235 237 237 237 236 232 229 223 224
152 139 136 127 119 107 99 88 34 6 4 358 355 99 134 162 168 177 178 177 173 170 164 160 163 171 167 174 170 181 176 189 212 241 283 310 281 253 249 251 253 256 257 257 263 260 224 213 232 244 247 245 247 248 243 242 242 240 238 234 232 230
110 116 119 116 112 111 102 84 16 0 338 334 335 81 123 131 138 152 152 153 156 143 155 158 168 162 179 175 175 181 182 201 199 218 235 265 317 339 309 272 258 262 266 268 268 264 265 261 250 243 245 250 253 249 248 246 245 245 242 238 235 234
91 79 81 99 99 94 86 69 359 335 318 316 339 95 91 100 96 88 77 84 107 131 149 152 143 153 151 155 167 173 178 190 188 181 190 209 228 241 253 291 336 352 7 351 304 303 305 295 292 286 272 263 256 252 251 253 252 250 250 248 250 243
86 77 68 78 86 88 82 45 346 331 321 331 43 83 88 89 91 88 84 74 77 82 86 102 121 137 142 157 170 170 176 165 166 162 168 120 119 111 20 340 1 17 346 348 349 345 335 328 323 310 296 290 289 289 284 269 252 245 240 236 240 243